Year,Month,Day,Hour,Minute,Value (Times are PST for windgust in km/hr)
2016,03,10,00,00,4.80
2016,03,10,00,04,1.60
2016,03,10,00,05,8.10
2016,03,10,00,06,4.80
2016,03,10,00,07,1.60
2016,03,10,00,09,4.80
2016,03,10,00,10,1.60
2016,03,10,00,11,6.40
2016,03,10,00,12,1.60
2016,03,10,00,13,1.60
2016,03,10,00,14,1.60
2016,03,10,00,18,1.60
2016,03,10,00,20,6.40
2016,03,10,00,21,6.40
2016,03,10,00,23,3.20
2016,03,10,00,24,1.60
2016,03,10,00,25,4.80
2016,03,10,00,26,3.20
2016,03,10,00,27,8.10
2016,03,10,00,28,9.60
2016,03,10,00,29,6.40
2016,03,10,00,30,6.40
2016,03,10,00,31,6.40
2016,03,10,00,32,8.10
2016,03,10,00,33,8.10
2016,03,10,00,34,6.40
2016,03,10,00,36,1.60
2016,03,10,00,37,1.60
2016,03,10,00,39,3.20
2016,03,10,00,41,6.40
2016,03,10,00,42,3.20
2016,03,10,00,43,9.60
2016,03,10,00,44,1.60
2016,03,10,00,45,3.20
2016,03,10,00,46,8.10
2016,03,10,00,47,8.10
2016,03,10,00,48,3.20
2016,03,10,00,49,6.40
2016,03,10,00,50,6.40
2016,03,10,00,51,4.80
2016,03,10,00,52,4.80
2016,03,10,00,54,6.40
2016,03,10,00,55,6.40
2016,03,10,00,56,4.80
2016,03,10,00,58,12.90
2016,03,10,00,59,14.50
2016,03,10,01,00,9.60
2016,03,10,01,01,8.10
2016,03,10,01,02,9.60
2016,03,10,01,03,8.10
2016,03,10,01,04,6.40
2016,03,10,01,11,1.60
2016,03,10,01,12,1.60
2016,03,10,01,13,8.10
2016,03,10,01,14,9.60
2016,03,10,01,15,11.30
2016,03,10,01,16,6.40
2016,03,10,01,18,6.40
2016,03,10,01,19,6.40
2016,03,10,01,21,4.80
2016,03,10,01,22,4.80
2016,03,10,01,23,1.60
2016,03,10,01,24,1.60
2016,03,10,01,25,3.20
2016,03,10,01,26,9.60
2016,03,10,01,27,9.60
2016,03,10,01,28,6.40
2016,03,10,01,29,6.40
2016,03,10,01,30,4.80
2016,03,10,01,31,6.40
2016,03,10,01,32,9.60
2016,03,10,01,33,6.40
2016,03,10,01,34,1.60
2016,03,10,01,37,3.20
2016,03,10,01,38,6.40
2016,03,10,01,39,6.40
2016,03,10,01,40,8.10
2016,03,10,01,41,4.80
2016,03,10,01,42,9.60
2016,03,10,01,43,9.60
2016,03,10,01,44,6.40
2016,03,10,01,45,1.60
2016,03,10,01,46,9.60
2016,03,10,01,47,3.20
2016,03,10,01,48,3.20
2016,03,10,01,49,8.10
2016,03,10,01,50,6.40
2016,03,10,01,51,4.80
2016,03,10,01,52,3.20
2016,03,10,01,53,16.10
2016,03,10,01,54,9.60
2016,03,10,01,55,3.20
2016,03,10,01,58,1.60
2016,03,10,01,59,8.10
2016,03,10,02,00,6.40
2016,03,10,02,01,8.10
2016,03,10,02,02,4.80
2016,03,10,02,03,8.10
2016,03,10,02,04,9.60
2016,03,10,02,05,14.50
2016,03,10,02,06,4.80
2016,03,10,02,07,16.10
2016,03,10,02,08,11.30
2016,03,10,02,09,8.10
2016,03,10,02,10,6.40
2016,03,10,02,11,6.40
2016,03,10,02,12,9.60
2016,03,10,02,13,6.40
2016,03,10,02,14,4.80
2016,03,10,02,15,11.30
2016,03,10,02,16,1.60
2016,03,10,02,17,6.40
2016,03,10,02,18,9.60
2016,03,10,02,19,11.30
2016,03,10,02,20,8.10
2016,03,10,02,21,6.40
2016,03,10,02,22,1.60
2016,03,10,02,23,1.60
2016,03,10,02,24,6.40
2016,03,10,02,25,14.50
2016,03,10,02,26,8.10
2016,03,10,02,29,8.10
2016,03,10,02,30,8.10
2016,03,10,02,31,11.30
2016,03,10,02,32,11.30
2016,03,10,02,33,14.50
2016,03,10,02,34,16.10
2016,03,10,02,35,11.30
2016,03,10,02,36,17.70
2016,03,10,02,37,6.40
2016,03,10,02,38,3.20
2016,03,10,02,39,12.90
2016,03,10,02,40,6.40
2016,03,10,02,41,3.20
2016,03,10,02,42,12.90
2016,03,10,02,43,9.60
2016,03,10,02,44,11.30
2016,03,10,02,45,9.60
2016,03,10,02,46,9.60
2016,03,10,02,47,22.50
2016,03,10,02,48,8.10
2016,03,10,02,49,11.30
2016,03,10,02,50,4.80
2016,03,10,02,51,3.20
2016,03,10,02,52,1.60
2016,03,10,02,53,9.60
2016,03,10,02,54,3.20
2016,03,10,02,55,17.70
2016,03,10,02,56,9.60
2016,03,10,02,57,8.10
2016,03,10,02,58,16.10
2016,03,10,02,59,14.50
2016,03,10,03,00,11.30
2016,03,10,03,01,9.60
2016,03,10,03,02,19.30
2016,03,10,03,06,19.30
2016,03,10,03,07,19.30
2016,03,10,03,09,4.80
2016,03,10,03,10,3.20
2016,03,10,03,11,9.60
2016,03,10,03,12,17.70
2016,03,10,03,13,11.30
2016,03,10,03,14,9.60
2016,03,10,03,15,11.30
2016,03,10,03,16,11.30
2016,03,10,03,17,11.30
2016,03,10,03,18,8.10
2016,03,10,03,19,9.60
2016,03,10,03,20,14.50
2016,03,10,03,21,8.10
2016,03,10,03,22,16.10
2016,03,10,03,23,16.10
2016,03,10,03,24,17.70
2016,03,10,03,25,14.50
2016,03,10,03,26,8.10
2016,03,10,03,27,8.10
2016,03,10,03,28,8.10
2016,03,10,03,29,9.60
2016,03,10,03,30,11.30
2016,03,10,03,31,9.60
2016,03,10,03,32,8.10
2016,03,10,03,33,8.10
2016,03,10,03,34,8.10
2016,03,10,03,35,3.20
2016,03,10,03,36,14.50
2016,03,10,03,37,11.30
2016,03,10,03,38,8.10
2016,03,10,03,39,8.10
2016,03,10,03,40,14.50
2016,03,10,03,41,17.70
2016,03,10,03,42,17.70
2016,03,10,03,43,16.10
2016,03,10,03,44,8.10
2016,03,10,03,45,6.40
2016,03,10,03,46,9.60
2016,03,10,03,47,20.90
2016,03,10,03,48,12.90
2016,03,10,03,49,8.10
2016,03,10,03,50,8.10
2016,03,10,03,51,14.50
2016,03,10,03,52,6.40
2016,03,10,03,53,11.30
2016,03,10,03,54,6.40
2016,03,10,03,55,6.40
2016,03,10,03,56,8.10
2016,03,10,03,57,24.20
2016,03,10,03,58,14.50
2016,03,10,03,59,19.30
2016,03,10,04,00,11.30
2016,03,10,04,01,14.50
2016,03,10,04,02,6.40
2016,03,10,04,03,3.20
2016,03,10,04,04,9.60
2016,03,10,04,05,17.70
2016,03,10,04,06,8.10
2016,03,10,04,07,9.60
2016,03,10,04,08,17.70
2016,03,10,04,09,11.30
2016,03,10,04,10,16.10
2016,03,10,04,11,14.50
2016,03,10,04,12,11.30
2016,03,10,04,13,11.30
2016,03,10,04,14,16.10
2016,03,10,04,15,20.90
2016,03,10,04,16,16.10
2016,03,10,04,17,19.30
2016,03,10,04,18,14.50
2016,03,10,04,19,16.10
2016,03,10,04,20,16.10
2016,03,10,04,21,9.60
2016,03,10,04,22,16.10
2016,03,10,04,23,8.10
2016,03,10,04,24,8.10
2016,03,10,04,25,17.70
2016,03,10,04,26,14.50
2016,03,10,04,27,19.30
2016,03,10,04,28,17.70
2016,03,10,04,29,17.70
2016,03,10,04,30,11.30
2016,03,10,04,31,16.10
2016,03,10,04,32,6.40
2016,03,10,04,33,17.70
2016,03,10,04,34,9.60
2016,03,10,04,35,4.80
2016,03,10,04,36,9.60
2016,03,10,04,37,8.10
2016,03,10,04,39,6.40
2016,03,10,04,40,1.60
2016,03,10,04,41,8.10
2016,03,10,04,42,14.50
2016,03,10,04,43,9.60
2016,03,10,04,44,11.30
2016,03,10,04,45,3.20
2016,03,10,04,46,11.30
2016,03,10,04,47,4.80
2016,03,10,04,48,9.60
2016,03,10,04,49,9.60
2016,03,10,04,50,17.70
2016,03,10,04,51,16.10
2016,03,10,04,52,17.70
2016,03,10,04,53,9.60
2016,03,10,04,54,11.30
2016,03,10,04,55,17.70
2016,03,10,04,56,20.90
2016,03,10,04,57,17.70
2016,03,10,04,58,9.60
2016,03,10,04,59,9.60
2016,03,10,05,00,9.60
2016,03,10,05,01,9.60
2016,03,10,05,02,14.50
2016,03,10,05,03,14.50
2016,03,10,05,04,20.90
2016,03,10,05,05,14.50
2016,03,10,05,06,3.20
2016,03,10,05,07,16.10
2016,03,10,05,08,9.60
2016,03,10,05,09,6.40
2016,03,10,05,10,4.80
2016,03,10,05,11,9.60
2016,03,10,05,12,22.50
2016,03,10,05,13,9.60
2016,03,10,05,14,17.70
2016,03,10,05,15,8.10
2016,03,10,05,16,16.10
2016,03,10,05,17,8.10
2016,03,10,05,18,8.10
2016,03,10,05,19,17.70
2016,03,10,05,21,14.50
2016,03,10,05,22,20.90
2016,03,10,05,23,11.30
2016,03,10,05,24,9.60
2016,03,10,05,25,17.70
2016,03,10,05,26,8.10
2016,03,10,05,27,24.20
2016,03,10,05,28,20.90
2016,03,10,05,29,17.70
2016,03,10,05,30,8.10
2016,03,10,05,31,17.70
2016,03,10,05,32,25.70
2016,03,10,05,33,19.30
2016,03,10,05,34,11.30
2016,03,10,05,35,20.90
2016,03,10,05,36,20.90
2016,03,10,05,37,9.60
2016,03,10,05,38,11.30
2016,03,10,05,39,1.60
2016,03,10,05,40,4.80
2016,03,10,05,41,20.90
2016,03,10,05,42,19.30
2016,03,10,05,43,9.60
2016,03,10,05,44,9.60
2016,03,10,05,45,6.40
2016,03,10,05,46,9.60
2016,03,10,05,47,11.30
2016,03,10,05,48,9.60
2016,03,10,05,49,17.70
2016,03,10,05,50,16.10
2016,03,10,05,51,11.30
2016,03,10,05,52,8.10
2016,03,10,05,53,22.50
2016,03,10,05,54,20.90
2016,03,10,05,55,16.10
2016,03,10,05,56,19.30
2016,03,10,05,57,17.70
2016,03,10,05,58,19.30
2016,03,10,05,59,17.70
2016,03,10,06,00,20.90
2016,03,10,06,01,22.50
2016,03,10,06,02,17.70
2016,03,10,06,03,9.60
2016,03,10,06,04,3.20
2016,03,10,06,05,8.10
2016,03,10,06,06,9.60
2016,03,10,06,07,16.10
2016,03,10,06,08,17.70
2016,03,10,06,09,17.70
2016,03,10,06,10,16.10
2016,03,10,06,11,9.60
2016,03,10,06,12,17.70
2016,03,10,06,13,9.60
2016,03,10,06,14,9.60
2016,03,10,06,15,14.50
2016,03,10,06,16,16.10
2016,03,10,06,17,17.70
2016,03,10,06,18,19.30
2016,03,10,06,19,9.60
2016,03,10,06,20,1.60
2016,03,10,06,21,14.50
2016,03,10,06,22,17.70
2016,03,10,06,23,16.10
2016,03,10,06,24,9.60
2016,03,10,06,25,12.90
2016,03,10,06,26,20.90
2016,03,10,06,27,11.30
2016,03,10,06,28,16.10
2016,03,10,06,29,8.10
2016,03,10,06,30,8.10
2016,03,10,06,31,9.60
2016,03,10,06,32,11.30
2016,03,10,06,33,19.30
2016,03,10,06,34,11.30
2016,03,10,06,35,1.60
2016,03,10,06,36,3.20
2016,03,10,06,37,11.30
2016,03,10,06,38,8.10
2016,03,10,06,39,8.10
2016,03,10,06,40,8.10
2016,03,10,06,41,11.30
2016,03,10,06,42,6.40
2016,03,10,06,43,14.50
2016,03,10,06,44,16.10
2016,03,10,06,45,11.30
2016,03,10,06,46,4.80
2016,03,10,06,47,8.10
2016,03,10,06,48,19.30
2016,03,10,06,49,8.10
2016,03,10,06,50,9.60
2016,03,10,06,51,3.20
2016,03,10,06,52,17.70
2016,03,10,06,53,17.70
2016,03,10,06,54,9.60
2016,03,10,06,55,20.90
2016,03,10,06,56,14.50
2016,03,10,06,57,6.40
2016,03,10,06,58,6.40
2016,03,10,06,59,12.90
2016,03,10,07,00,6.40
2016,03,10,07,01,17.70
2016,03,10,07,02,8.10
2016,03,10,07,03,17.70
2016,03,10,07,04,19.30
2016,03,10,07,05,14.50
2016,03,10,07,06,16.10
2016,03,10,07,07,11.30
2016,03,10,07,08,16.10
2016,03,10,07,09,9.60
2016,03,10,07,10,16.10
2016,03,10,07,11,9.60
2016,03,10,07,12,14.50
2016,03,10,07,13,8.10
2016,03,10,07,14,8.10
2016,03,10,07,15,16.10
2016,03,10,07,17,11.30
2016,03,10,07,18,16.10
2016,03,10,07,19,14.50
2016,03,10,07,20,8.10
2016,03,10,07,21,6.40
2016,03,10,07,22,6.40
2016,03,10,07,23,14.50
2016,03,10,07,24,17.70
2016,03,10,07,25,9.60
2016,03,10,07,26,14.50
2016,03,10,07,27,8.10
2016,03,10,07,28,9.60
2016,03,10,07,29,8.10
2016,03,10,07,30,14.50
2016,03,10,07,31,19.30
2016,03,10,07,32,9.60
2016,03,10,07,33,16.10
2016,03,10,07,34,16.10
2016,03,10,07,35,12.90
2016,03,10,07,36,9.60
2016,03,10,07,37,9.60
2016,03,10,07,38,11.30
2016,03,10,07,39,6.40
2016,03,10,07,40,9.60
2016,03,10,07,41,8.10
2016,03,10,07,42,4.80
2016,03,10,07,43,19.30
2016,03,10,07,44,12.90
2016,03,10,07,45,14.50
2016,03,10,07,46,9.60
2016,03,10,07,47,22.50
2016,03,10,07,48,17.70
2016,03,10,07,49,17.70
2016,03,10,07,50,17.70
2016,03,10,07,51,37.00
2016,03,10,07,52,27.40
2016,03,10,07,53,40.20
2016,03,10,07,54,32.20
2016,03,10,07,55,27.40
2016,03,10,07,56,43.50
2016,03,10,07,57,40.20
2016,03,10,07,58,17.70
2016,03,10,07,59,17.70
2016,03,10,08,00,27.40
2016,03,10,08,01,22.50
2016,03,10,08,02,30.60
2016,03,10,08,03,49.90
2016,03,10,08,04,27.40
2016,03,10,08,05,30.60
2016,03,10,08,06,22.50
2016,03,10,08,07,40.20
2016,03,10,08,08,20.90
2016,03,10,08,09,20.90
2016,03,10,08,10,16.10
2016,03,10,08,11,19.30
2016,03,10,08,12,3.20
2016,03,10,08,13,14.50
2016,03,10,08,14,11.30
2016,03,10,08,15,29.00
2016,03,10,08,16,24.20
2016,03,10,08,17,20.90
2016,03,10,08,18,20.90
2016,03,10,08,19,54.70
2016,03,10,08,20,35.40
2016,03,10,08,21,11.30
2016,03,10,08,22,9.60
2016,03,10,08,23,22.50
2016,03,10,08,24,12.90
2016,03,10,08,25,3.20
2016,03,10,08,26,14.50
2016,03,10,08,27,9.60
2016,03,10,08,28,19.30
2016,03,10,08,29,12.90
2016,03,10,08,30,9.60
2016,03,10,08,31,6.40
2016,03,10,08,34,1.60
2016,03,10,08,37,3.20
2016,03,10,08,38,1.60
2016,03,10,08,39,1.60
2016,03,10,08,41,4.80
2016,03,10,08,44,6.40
2016,03,10,08,45,3.20
2016,03,10,08,47,1.60
2016,03,10,08,48,1.60
2016,03,10,08,49,9.60
2016,03,10,08,50,8.10
2016,03,10,08,51,8.10
2016,03,10,08,52,4.80
2016,03,10,08,53,8.10
2016,03,10,08,54,6.40
2016,03,10,08,57,1.60
2016,03,10,08,58,8.10
2016,03,10,08,59,4.80
2016,03,10,09,01,1.60
2016,03,10,09,02,1.60
2016,03,10,09,03,8.10
2016,03,10,09,04,8.10
2016,03,10,09,05,6.40
2016,03,10,09,06,3.20
2016,03,10,09,07,4.80
2016,03,10,09,25,1.60
2016,03,10,09,28,3.20
2016,03,10,09,29,3.20
2016,03,10,09,30,3.20
2016,03,10,09,31,8.10
2016,03,10,09,32,16.10
2016,03,10,09,33,22.50
2016,03,10,09,34,19.30
2016,03,10,09,35,12.90
2016,03,10,09,36,16.10
2016,03,10,09,37,9.60
2016,03,10,09,38,6.40
2016,03,10,09,39,9.60
2016,03,10,09,40,9.60
2016,03,10,09,41,11.30
2016,03,10,09,42,17.70
2016,03,10,09,43,8.10
2016,03,10,09,46,4.80
2016,03,10,09,47,16.10
2016,03,10,09,48,20.90
2016,03,10,09,49,12.90
2016,03,10,09,50,17.70
2016,03,10,09,51,8.10
2016,03,10,09,52,8.10
2016,03,10,09,53,6.40
2016,03,10,09,54,4.80
2016,03,10,09,55,8.10
2016,03,10,09,56,9.60
2016,03,10,09,57,14.50
2016,03,10,09,58,22.50
2016,03,10,09,59,14.50
2016,03,10,10,00,6.40
2016,03,10,10,01,9.60
2016,03,10,10,02,11.30
2016,03,10,10,03,14.50
2016,03,10,10,04,8.10
2016,03,10,10,05,11.30
2016,03,10,10,06,9.60
2016,03,10,10,07,8.10
2016,03,10,10,08,20.90
2016,03,10,10,09,9.60
2016,03,10,10,10,14.50
2016,03,10,10,11,9.60
2016,03,10,10,12,6.40
2016,03,10,10,15,4.80
2016,03,10,10,16,11.30
2016,03,10,10,17,4.80
2016,03,10,10,18,6.40
2016,03,10,10,20,6.40
2016,03,10,10,21,1.60
2016,03,10,10,23,6.40
2016,03,10,10,24,8.10
2016,03,10,10,26,6.40
2016,03,10,10,27,6.40
2016,03,10,10,28,4.80
2016,03,10,10,29,8.10
2016,03,10,10,30,9.60
2016,03,10,10,31,6.40
2016,03,10,10,32,8.10
2016,03,10,10,33,8.10
2016,03,10,10,34,4.80
2016,03,10,10,35,8.10
2016,03,10,10,36,8.10
2016,03,10,10,37,8.10
2016,03,10,10,38,4.80
2016,03,10,10,39,4.80
2016,03,10,10,40,11.30
2016,03,10,10,41,11.30
2016,03,10,10,42,8.10
2016,03,10,10,43,19.30
2016,03,10,10,44,20.90
2016,03,10,10,45,9.60
2016,03,10,10,46,9.60
2016,03,10,10,47,8.10
2016,03,10,10,48,14.50
2016,03,10,10,49,9.60
2016,03,10,10,50,16.10
2016,03,10,10,51,8.10
2016,03,10,10,52,1.60
2016,03,10,10,54,8.10
2016,03,10,10,55,8.10
2016,03,10,10,56,16.10
2016,03,10,10,57,17.70
2016,03,10,10,58,11.30
2016,03,10,10,59,9.60
2016,03,10,11,00,8.10
2016,03,10,11,01,9.60
2016,03,10,11,02,11.30
2016,03,10,11,03,9.60
2016,03,10,11,04,11.30
2016,03,10,11,05,8.10
2016,03,10,11,06,4.80
2016,03,10,11,07,16.10
2016,03,10,11,08,16.10
2016,03,10,11,09,9.60
2016,03,10,11,10,11.30
2016,03,10,11,11,8.10
2016,03,10,11,12,19.30
2016,03,10,11,13,11.30
2016,03,10,11,14,12.90
2016,03,10,11,15,4.80
2016,03,10,11,16,3.20
2016,03,10,11,17,4.80
2016,03,10,11,18,16.10
2016,03,10,11,19,14.50
2016,03,10,11,21,4.80
2016,03,10,11,22,6.40
2016,03,10,11,28,6.40
2016,03,10,11,29,4.80
2016,03,10,11,30,4.80
2016,03,10,11,32,1.60
2016,03,10,11,33,4.80
2016,03,10,11,34,3.20
2016,03,10,11,35,3.20
2016,03,10,11,37,1.60
2016,03,10,11,40,3.20
2016,03,10,11,41,6.40
2016,03,10,11,42,6.40
2016,03,10,11,43,9.60
2016,03,10,11,44,9.60
2016,03,10,11,45,9.60
2016,03,10,11,46,8.10
2016,03,10,11,47,16.10
2016,03,10,11,48,19.30
2016,03,10,11,49,12.90
2016,03,10,11,50,8.10
2016,03,10,11,51,17.70
2016,03,10,11,52,14.50
2016,03,10,11,53,4.80
2016,03,10,11,54,6.40
2016,03,10,11,55,6.40
2016,03,10,11,56,3.20
2016,03,10,11,57,4.80
2016,03,10,11,58,9.60
2016,03,10,11,59,9.60
2016,03,10,12,00,14.50
2016,03,10,12,01,9.60
2016,03,10,12,02,16.10
2016,03,10,12,03,14.50
2016,03,10,12,04,16.10
2016,03,10,12,05,4.80
2016,03,10,12,06,17.70
2016,03,10,12,07,16.10
2016,03,10,12,08,8.10
2016,03,10,12,09,12.90
2016,03,10,12,10,8.10
2016,03,10,12,11,8.10
2016,03,10,12,12,4.80
2016,03,10,12,13,17.70
2016,03,10,12,14,8.10
2016,03,10,12,15,1.60
2016,03,10,12,16,6.40
2016,03,10,12,17,9.60
2016,03,10,12,18,4.80
2016,03,10,12,19,4.80
2016,03,10,12,20,8.10
2016,03,10,12,21,12.90
2016,03,10,12,22,3.20
2016,03,10,12,23,6.40
2016,03,10,12,24,9.60
2016,03,10,12,25,17.70
2016,03,10,12,26,14.50
2016,03,10,12,27,6.40
2016,03,10,12,28,20.90
2016,03,10,12,29,9.60
2016,03,10,12,30,11.30
2016,03,10,12,31,22.50
2016,03,10,12,32,27.40
2016,03,10,12,33,12.90
2016,03,10,12,34,9.60
2016,03,10,12,35,19.30
2016,03,10,12,36,16.10
2016,03,10,12,37,8.10
2016,03,10,12,38,4.80
2016,03,10,12,39,4.80
2016,03,10,12,40,9.60
2016,03,10,12,41,8.10
2016,03,10,12,42,6.40
2016,03,10,12,43,1.60
2016,03,10,12,44,16.10
2016,03,10,12,45,16.10
2016,03,10,12,46,14.50
2016,03,10,12,47,3.20
2016,03,10,12,48,4.80
2016,03,10,12,49,4.80
2016,03,10,12,50,6.40
2016,03,10,12,51,4.80
2016,03,10,12,52,3.20
2016,03,10,12,53,20.90
2016,03,10,12,54,11.30
2016,03,10,12,55,3.20
2016,03,10,12,57,6.40
2016,03,10,12,58,8.10
2016,03,10,12,59,3.20
2016,03,10,13,00,4.80
2016,03,10,13,01,6.40
2016,03,10,13,02,11.30
2016,03,10,13,04,6.40
2016,03,10,13,07,1.60
2016,03,10,13,08,4.80
2016,03,10,13,09,6.40
2016,03,10,13,10,8.10
2016,03,10,13,11,6.40
2016,03,10,13,12,1.60
2016,03,10,13,13,6.40
2016,03,10,13,14,8.10
2016,03,10,13,15,6.40
2016,03,10,13,16,6.40
2016,03,10,13,17,3.20
2016,03,10,13,18,1.60
2016,03,10,13,19,1.60
2016,03,10,13,20,3.20
2016,03,10,13,21,8.10
2016,03,10,13,22,6.40
2016,03,10,13,23,9.60
2016,03,10,13,24,6.40
2016,03,10,13,25,6.40
2016,03,10,13,26,16.10
2016,03,10,13,27,20.90
2016,03,10,13,28,4.80
2016,03,10,13,29,9.60
2016,03,10,13,30,11.30
2016,03,10,13,32,17.70
2016,03,10,13,33,8.10
2016,03,10,13,34,17.70
2016,03,10,13,35,11.30
2016,03,10,13,36,9.60
2016,03,10,13,37,8.10
2016,03,10,13,38,11.30
2016,03,10,13,39,11.30
2016,03,10,13,40,8.10
2016,03,10,13,41,9.60
2016,03,10,13,42,8.10
2016,03,10,13,43,8.10
2016,03,10,13,44,6.40
2016,03,10,13,45,6.40
2016,03,10,13,46,16.10
2016,03,10,13,47,8.10
2016,03,10,13,49,1.60
2016,03,10,13,53,4.80
2016,03,10,13,54,4.80
2016,03,10,13,55,3.20
2016,03,10,13,56,1.60
2016,03,10,13,57,6.40
2016,03,10,13,58,6.40
2016,03,10,13,59,9.60
2016,03,10,14,01,11.30
2016,03,10,14,02,8.10
2016,03,10,14,03,4.80
2016,03,10,14,04,4.80
2016,03,10,14,06,6.40
2016,03,10,14,07,3.20
2016,03,10,14,08,8.10
2016,03,10,14,09,4.80
2016,03,10,14,11,1.60
2016,03,10,14,13,4.80
2016,03,10,14,14,3.20
2016,03,10,14,16,1.60
2016,03,10,14,18,1.60
2016,03,10,14,20,3.20
2016,03,10,14,21,4.80
2016,03,10,14,23,3.20
2016,03,10,14,24,4.80
2016,03,10,14,25,1.60
2016,03,10,14,26,3.20
2016,03,10,14,27,3.20
2016,03,10,14,30,1.60
2016,03,10,14,31,6.40
2016,03,10,14,32,3.20
2016,03,10,14,36,11.30
2016,03,10,14,37,6.40
2016,03,10,14,38,6.40
2016,03,10,14,39,4.80
2016,03,10,14,40,4.80
2016,03,10,14,41,4.80
2016,03,10,14,42,4.80
2016,03,10,14,47,1.60
2016,03,10,14,49,9.60
2016,03,10,14,50,8.10
2016,03,10,14,51,3.20
2016,03,10,14,52,3.20
2016,03,10,14,57,4.80
2016,03,10,14,58,6.40
2016,03,10,14,59,8.10
2016,03,10,15,00,6.40
2016,03,10,15,01,3.20
2016,03,10,15,05,1.60
2016,03,10,15,06,4.80
2016,03,10,15,07,4.80
2016,03,10,15,08,8.10
2016,03,10,15,10,1.60
2016,03,10,15,11,3.20
2016,03,10,15,12,1.60
2016,03,10,15,14,1.60
2016,03,10,15,21,1.60
2016,03,10,15,36,1.60
2016,03,10,15,37,1.60
2016,03,10,15,38,6.40
2016,03,10,15,39,4.80
2016,03,10,15,40,1.60
2016,03,10,15,42,3.20
2016,03,10,16,00,1.60
2016,03,10,16,08,1.60
2016,03,10,16,09,4.80
2016,03,10,16,10,6.40
2016,03,10,16,11,3.20
2016,03,10,16,15,1.60
2016,03,10,16,23,1.60
2016,03,10,16,29,1.60
2016,03,10,16,30,1.60
2016,03,10,16,35,1.60
2016,03,10,16,54,3.20
2016,03,10,16,58,1.60
2016,03,10,16,59,1.60
2016,03,10,17,00,3.20
2016,03,10,17,07,1.60
2016,03,10,17,08,1.60
2016,03,10,17,09,3.20
2016,03,10,17,21,1.60
2016,03,10,17,28,1.60
2016,03,10,17,29,3.20
2016,03,10,17,30,3.20
2016,03,10,17,38,1.60
2016,03,10,17,40,1.60
2016,03,10,17,41,4.80
2016,03,10,17,42,4.80
2016,03,10,17,49,3.20
2016,03,10,17,50,4.80
2016,03,10,17,51,1.60
2016,03,10,17,54,1.60
2016,03,10,17,55,4.80
2016,03,10,17,56,3.20
2016,03,10,17,57,4.80
2016,03,10,17,58,1.60
2016,03,10,17,59,3.20
2016,03,10,18,03,1.60
2016,03,10,18,04,3.20
2016,03,10,18,05,6.40
2016,03,10,18,06,6.40
2016,03,10,18,07,11.30
2016,03,10,18,08,3.20
2016,03,10,18,15,1.60
2016,03,10,18,28,1.60
2016,03,10,18,35,1.60
2016,03,10,18,58,1.60
2016,03,10,18,59,4.80
2016,03,10,19,00,4.80
2016,03,10,19,02,3.20
2016,03,10,19,05,3.20
2016,03,10,19,06,3.20
2016,03,10,19,07,4.80
2016,03,10,19,15,1.60
2016,03,10,19,16,4.80
2016,03,10,19,17,4.80
2016,03,10,19,18,3.20
2016,03,10,19,19,3.20
2016,03,10,19,20,1.60
2016,03,10,19,24,3.20
2016,03,10,19,25,3.20
2016,03,10,19,26,4.80
2016,03,10,19,28,1.60
2016,03,10,19,47,1.60
2016,03,10,19,54,1.60
2016,03,10,19,55,1.60
2016,03,10,19,56,3.20
2016,03,10,19,57,1.60
2016,03,10,21,03,3.20
2016,03,10,21,21,1.60
2016,03,10,21,22,1.60
2016,03,10,21,23,1.60
2016,03,10,21,24,1.60
2016,03,10,21,25,3.20
2016,03,10,21,26,3.20
2016,03,10,21,27,4.80
2016,03,10,21,28,1.60
2016,03,10,21,31,4.80
2016,03,10,21,32,4.80
2016,03,10,21,33,3.20
2016,03,10,21,34,4.80
2016,03,10,21,35,8.10
2016,03,10,21,36,4.80
2016,03,10,21,43,3.20
2016,03,10,21,46,3.20
2016,03,10,21,47,1.60
2016,03,10,21,49,1.60
2016,03,10,21,58,3.20
2016,03,10,21,59,4.80
2016,03,10,22,00,4.80
2016,03,10,22,04,4.80
2016,03,10,22,05,6.40
2016,03,10,22,06,8.10
2016,03,10,22,11,1.60
2016,03,10,22,12,1.60
2016,03,10,22,13,1.60
2016,03,10,22,19,1.60
2016,03,10,22,20,6.40
2016,03,10,22,21,4.80
2016,03,10,22,25,1.60
2016,03,10,22,26,3.20
2016,03,10,22,27,4.80
2016,03,10,22,31,1.60
2016,03,10,22,51,4.80
2016,03,10,22,58,4.80
2016,03,10,23,06,1.60
2016,03,10,23,07,1.60
2016,03,10,23,08,1.60
2016,03,10,23,11,3.20
2016,03,10,23,12,1.60
2016,03,10,23,15,1.60
2016,03,10,23,21,1.60
2016,03,10,23,22,3.20
2016,03,10,23,24,1.60
2016,03,10,23,27,3.20
2016,03,10,23,28,1.60
2016,03,10,23,29,6.40
2016,03,10,23,30,4.80
2016,03,10,23,31,3.20
2016,03,10,23,32,8.10
2016,03,10,23,33,11.30
2016,03,10,23,34,8.10
2016,03,10,23,35,4.80
2016,03,10,23,36,3.20
2016,03,10,23,39,1.60
2016,03,10,23,40,3.20
2016,03,10,23,41,4.80
2016,03,10,23,42,6.40
2016,03,10,23,43,6.40
2016,03,10,23,44,6.40
2016,03,10,23,45,3.20
2016,03,10,23,46,1.60
2016,03,10,23,48,1.60
2016,03,10,23,49,1.60
2016,03,10,23,50,3.20
2016,03,10,23,52,1.60
2016,03,10,23,55,1.60
2016,03,10,23,59,1.60
